GGSE 3

导读

GGSE-3(重力梯度稳定实验卫星3号)是美国于1965年3月9日发射的技术试验卫星,隶属于美国宇航局(NASA)GGSE卫星系列,核心任务是验证空间重力梯度稳定技术,为后续长寿命卫星姿态控制方案积累试验数据。作为早期卫星技术探索的重要节点,该卫星的试验成果推动了重力梯度稳定技术在后续通信、气象卫星中的实用化发展,是美国航天技术发展早期微小卫星技术试验的典型代表。

基本信息
目录编号:
1292
目录名称:
GGSE 3
国际标识:
1965-016C
轨道中心:
EARTH
卫星名称:
GGSE 3
卫星全名:
--
卫星状态:
在轨 (已飞行22469 天)
发射日期:
1965-03-09 UTC
国别 :
美国 (US)
星等 :
--
该卫星已列入 空间交会检测服务 Space Conjunction Data Service (SCDS) ,当前飞行风险评估等级: 无高风险
轨道信息
数据来源 国际轨道数据 AOE轨道数据
星历时间 2026-09-13T21:48:50+0800
14小时前
查看轨道信息
2026-09-13T04:00:00+0800
1天前
查看轨道信息
半长轴 7266.365km 7266.371km
偏心率 0.0019986 0.0019821
轨道倾角 70.076° 70.077°
近地点辐角 199.318° 200.223°
升交点赤经 121.638° 123.234°
平近点角 160.717° 15.587°
近地点 873.705km 873.831km
远地点 902.751km 902.637km
周期 102.739分钟 102.739分钟
每日圈数 14.016095 14.016075
详细信息
使用方式:
暂无
2D轨道图
3D轨道图
轨道高度分析图
轨道倾角分析图
轨道综合分析图
查看轨道综合分析图
与全量物体交会距离演化趋势 订阅飞行安全评估服务
与全量物体交会风险概率演化趋势 订阅飞行安全评估服务